Time,TemperatureF,DewpointF,PressureIn,WindDirection,WindDirectionDegrees,WindSpeedMPH,WindSpeedGustMPH,Humidity,HourlyPrecipIn,Conditions,Clouds,dailyrainin,SoftwareType,DateUTC
2013-09-03 00:00:00,48.6,48.6,30.35,N/A,-737280,0.0,0.0,100,0.00,,,0.00,Wunderground v.1.13,2013-09-02 23:00:00,
2013-09-03 00:10:00,48.6,48.6,30.35,N/A,-737280,0.0,0.0,100,0.00,,,0.00,Wunderground v.1.13,2013-09-02 23:10:00,
2013-09-03 00:20:00,48.6,48.6,30.35,N/A,-737280,0.0,0.0,100,0.00,,,0.00,Wunderground v.1.13,2013-09-02 23:20:00,
2013-09-03 00:30:00,47.8,47.8,30.35,N/A,-737280,0.0,0.0,100,0.00,,,0.00,Wunderground v.1.13,2013-09-02 23:30:00,
2013-09-03 00:40:00,47.5,47.5,30.35,North,0,0.0,1.0,100,0.00,,,0.00,Wunderground v.1.13,2013-09-02 23:40:00,
2013-09-03 00:50:00,47.5,47.5,30.35,North,0,0.0,1.0,100,0.00,,,0.00,Wunderground v.1.13,2013-09-02 23:50:00,
2013-09-03 01:00:00,47.3,47.3,30.35,North,0,0.0,1.0,100,0.00,,,0.00,Wunderground v.1.13,2013-09-03 00:00:00,
2013-09-03 01:10:00,46.5,46.5,30.34,N/A,-737280,0.0,0.0,100,0.00,,,0.00,Wunderground v.1.13,2013-09-03 00:10:00,
2013-09-03 01:20:00,46.5,46.5,30.34,N/A,-737280,0.0,0.0,100,0.00,,,0.00,Wunderground v.1.13,2013-09-03 00:20:00,
2013-09-03 01:30:00,45.7,45.7,30.34,N/A,-737280,0.0,0.0,100,0.00,,,0.00,Wunderground v.1.13,2013-09-03 00:30:00,
2013-09-03 01:40:00,45.0,45.0,30.34,N/A,-737280,0.0,0.0,100,0.00,,,0.00,Wunderground v.1.13,2013-09-03 00:40:00,
2013-09-03 01:50:00,45.0,45.0,30.34,N/A,-737280,0.0,0.0,100,0.00,,,0.00,Wunderground v.1.13,2013-09-03 00:50:00,
2013-09-03 02:00:00,44.7,44.7,30.34,North,0,1.0,2.0,100,0.00,,,0.00,Wunderground v.1.13,2013-09-03 01:00:00,
2013-09-03 02:10:00,44.7,44.7,30.34,North,0,0.0,2.0,100,0.00,,,0.00,Wunderground v.1.13,2013-09-03 01:10:00,
2013-09-03 02:30:00,44.5,44.5,30.34,North,0,0.0,2.0,100,0.00,,,0.00,Wunderground v.1.13,2013-09-03 01:30:00,
2013-09-03 02:40:00,44.6,44.6,30.34,North,0,1.0,2.0,100,0.00,,,0.00,Wunderground v.1.13,2013-09-03 01:40:00,
2013-09-03 02:50:00,44.6,44.6,30.34,North,0,1.0,2.0,100,0.00,,,0.00,Wunderground v.1.13,2013-09-03 01:50:00,
2013-09-03 03:00:00,44.5,44.5,30.33,North,0,1.0,3.0,100,0.00,,,0.00,Wunderground v.1.13,2013-09-03 02:00:00,
2013-09-03 03:10:00,44.8,44.8,30.33,North,0,1.0,3.0,100,0.00,,,0.00,Wunderground v.1.13,2013-09-03 02:10:00,
2013-09-03 03:20:00,44.8,44.8,30.33,North,0,1.0,3.0,100,0.00,,,0.00,Wunderground v.1.13,2013-09-03 02:20:00,
2013-09-03 03:30:00,44.5,44.5,30.33,North,0,1.0,3.0,100,0.00,,,0.00,Wunderground v.1.13,2013-09-03 02:30:00,
2013-09-03 03:40:00,44.2,44.2,30.32,North,0,1.0,3.0,100,0.00,,,0.00,Wunderground v.1.13,2013-09-03 02:40:00,
2013-09-03 03:50:00,44.2,44.2,30.32,North,0,1.0,3.0,100,0.00,,,0.00,Wunderground v.1.13,2013-09-03 02:50:00,
2013-09-03 04:00:00,44.2,44.2,30.32,North,0,1.0,5.0,100,0.00,,,0.00,Wunderground v.1.13,2013-09-03 03:00:00,
2013-09-03 04:10:00,44.4,44.4,30.32,North,0,2.0,5.0,100,0.00,,,0.00,Wunderground v.1.13,2013-09-03 03:10:00,
2013-09-03 04:20:00,44.4,44.4,30.32,North,0,2.0,5.0,100,0.00,,,0.00,Wunderground v.1.13,2013-09-03 03:20:00,
2013-09-03 04:30:00,44.0,44.0,30.32,North,0,2.0,5.0,100,0.00,,,0.00,Wunderground v.1.13,2013-09-03 03:30:00,
2013-09-03 04:40:00,44.0,44.0,30.31,North,0,1.0,3.0,100,0.00,,,0.00,Wunderground v.1.13,2013-09-03 03:40:00,
2013-09-03 04:50:00,44.0,44.0,30.31,North,0,1.0,3.0,100,0.00,,,0.00,Wunderground v.1.13,2013-09-03 03:50:00,
2013-09-03 05:00:00,43.5,43.5,30.32,North,0,1.0,3.0,100,0.00,,,0.00,Wunderground v.1.13,2013-09-03 04:00:00,
2013-09-03 05:10:00,43.0,43.0,30.32,North,0,0.0,1.0,100,0.00,,,0.00,Wunderground v.1.13,2013-09-03 04:10:00,
2013-09-03 05:20:00,43.0,43.0,30.32,North,0,0.0,1.0,100,0.00,,,0.00,Wunderground v.1.13,2013-09-03 04:20:00,
2013-09-03 05:30:00,42.8,42.8,30.32,North,0,0.0,1.0,100,0.00,,,0.00,Wunderground v.1.13,2013-09-03 04:30:00,
2013-09-03 05:40:00,42.8,42.8,30.32,North,0,0.0,1.0,100,0.00,,,0.00,Wunderground v.1.13,2013-09-03 04:40:00,
2013-09-03 05:50:00,42.8,42.8,30.32,North,0,0.0,1.0,100,0.00,,,0.00,Wunderground v.1.13,2013-09-03 04:50:00,
2013-09-03 06:00:00,43.2,43.2,30.31,North,0,0.0,1.0,100,0.00,,,0.00,Wunderground v.1.13,2013-09-03 05:00:00,
2013-09-03 06:10:00,43.7,43.7,30.31,North,0,0.0,1.0,100,0.00,,,0.00,Wunderground v.1.13,2013-09-03 05:10:00,
2013-09-03 06:20:00,43.7,43.7,30.31,North,0,0.0,1.0,100,0.00,,,0.00,Wunderground v.1.13,2013-09-03 05:20:00,
2013-09-03 06:30:00,43.8,43.8,30.31,North,0,0.0,1.0,100,0.00,,,0.00,Wunderground v.1.13,2013-09-03 05:30:00,
2013-09-03 06:40:00,43.8,43.8,30.31,North,0,0.0,1.0,100,0.00,,,0.00,Wunderground v.1.13,2013-09-03 05:40:00,
2013-09-03 06:50:00,43.8,43.8,30.31,North,0,0.0,1.0,100,0.00,,,0.00,Wunderground v.1.13,2013-09-03 05:50:00,
2013-09-03 07:00:00,44.2,44.2,30.31,North,0,0.0,1.0,100,0.00,,,0.00,Wunderground v.1.13,2013-09-03 06:00:00,
2013-09-03 07:10:00,44.7,44.7,30.31,North,0,0.0,1.0,100,0.00,,,0.00,Wunderground v.1.13,2013-09-03 06:10:00,
2013-09-03 07:20:00,44.7,44.7,30.31,North,0,0.0,1.0,100,0.00,,,0.00,Wunderground v.1.13,2013-09-03 06:20:00,
2013-09-03 07:30:00,45.5,45.5,30.31,North,0,0.0,1.0,100,0.00,,,0.00,Wunderground v.1.13,2013-09-03 06:30:00,
2013-09-03 07:40:00,46.3,46.3,30.31,N/A,-737280,0.0,0.0,100,0.00,,,0.00,Wunderground v.1.13,2013-09-03 06:40:00,
2013-09-03 07:50:00,46.3,46.3,30.31,N/A,-737280,0.0,0.0,100,0.00,,,0.00,Wunderground v.1.13,2013-09-03 06:50:00,
2013-09-03 08:00:00,47.3,47.3,30.31,N/A,-737280,0.0,0.0,100,0.00,,,0.00,Wunderground v.1.13,2013-09-03 07:00:00,
2013-09-03 08:10:00,48.3,48.3,30.31,North,0,0.0,1.0,100,0.00,,,0.00,Wunderground v.1.13,2013-09-03 07:10:00,
2013-09-03 08:20:00,48.3,48.3,30.31,North,0,0.0,1.0,100,0.00,,,0.00,Wunderground v.1.13,2013-09-03 07:20:00,
2013-09-03 08:30:00,49.5,49.5,30.31,N/A,-737280,0.0,0.0,100,0.00,,,0.00,Wunderground v.1.13,2013-09-03 07:30:00,
2013-09-03 08:40:00,51.0,51.0,30.31,N/A,-737280,0.0,0.0,100,0.00,,,0.00,Wunderground v.1.13,2013-09-03 07:40:00,
2013-09-03 08:50:00,51.0,51.0,30.31,N/A,-737280,0.0,0.0,100,0.00,,,0.00,Wunderground v.1.13,2013-09-03 07:50:00,
2013-09-03 09:00:00,52.3,52.3,30.31,N/A,-737280,0.0,0.0,100,0.00,,,0.00,Wunderground v.1.13,2013-09-03 08:00:00,
2013-09-03 09:10:00,53.3,53.3,30.31,N/A,-737280,0.0,0.0,100,0.00,,,0.00,Wunderground v.1.13,2013-09-03 08:10:00,
2013-09-03 09:20:00,53.3,53.3,30.31,N/A,-737280,0.0,0.0,100,0.00,,,0.00,Wunderground v.1.13,2013-09-03 08:20:00,
2013-09-03 09:30:00,53.3,53.3,30.31,North,0,0.0,1.0,100,0.00,,,0.00,Wunderground v.1.13,2013-09-03 08:30:00,
2013-09-03 09:40:00,54.0,54.0,30.31,North,0,0.0,1.0,100,0.00,,,0.00,Wunderground v.1.13,2013-09-03 08:40:00,
2013-09-03 09:50:00,54.0,54.0,30.31,North,0,0.0,1.0,100,0.00,,,0.00,Wunderground v.1.13,2013-09-03 08:50:00,
2013-09-03 10:00:00,55.7,55.4,30.31,North,357,0.0,0.0,99,0.00,,,0.00,Wunderground v.1.13,2013-09-03 09:00:00,
2013-09-03 10:10:00,56.4,55.6,30.31,North,357,0.0,0.0,97,0.00,,,0.00,Wunderground v.1.13,2013-09-03 09:10:00,
2013-09-03 10:20:00,56.7,55.6,30.31,SW,222,0.0,0.0,96,0.00,,,0.00,Wunderground v.1.13,2013-09-03 09:20:00,
2013-09-03 10:30:00,57.3,55.6,30.31,SW,220,0.0,0.0,94,0.00,,,0.00,Wunderground v.1.13,2013-09-03 09:30:00,
2013-09-03 10:40:00,57.9,55.9,30.31,SW,220,0.0,0.0,93,0.00,,,0.00,Wunderground v.1.13,2013-09-03 09:40:00,
2013-09-03 10:50:00,58.1,55.5,30.31,SW,220,0.0,0.0,91,0.00,,,0.00,Wunderground v.1.13,2013-09-03 09:50:00,
2013-09-03 11:00:00,58.7,55.8,30.31,SW,220,0.0,0.0,90,0.00,,,0.00,Wunderground v.1.13,2013-09-03 10:00:00,
2013-09-03 11:10:00,59.0,55.4,30.31,SW,222,1.0,4.0,88,0.00,,,0.00,Wunderground v.1.13,2013-09-03 10:10:00,
2013-09-03 11:20:00,59.5,55.3,30.31,SW,217,3.0,4.0,86,0.00,,,0.00,Wunderground v.1.13,2013-09-03 10:20:00,
2013-09-03 11:30:00,59.5,55.0,30.31,SW,219,4.0,4.0,85,0.00,,,0.00,Wunderground v.1.13,2013-09-03 10:30:00,
2013-09-03 11:40:00,59.7,54.5,30.31,SW,223,4.0,5.0,83,0.00,,,0.00,Wunderground v.1.13,2013-09-03 10:40:00,
2013-09-03 11:50:00,59.8,54.6,30.31,SW,226,3.0,3.0,83,0.00,,,0.00,Wunderground v.1.13,2013-09-03 10:50:00,
2013-09-03 12:00:00,60.0,54.5,30.31,SW,225,4.0,7.0,82,0.00,,,0.00,Wunderground v.1.13,2013-09-03 11:00:00,
2013-09-03 12:10:00,60.1,54.9,30.31,SW,215,3.0,3.0,83,0.00,,,0.00,Wunderground v.1.13,2013-09-03 11:10:00,
2013-09-03 12:20:00,60.3,55.1,30.31,SSW,212,3.0,3.0,83,0.00,,,0.00,Wunderground v.1.13,2013-09-03 11:20:00,
2013-09-03 12:30:00,60.3,54.8,30.30,SW,225,3.0,7.0,82,0.00,,,0.00,Wunderground v.1.13,2013-09-03 11:30:00,
2013-09-03 12:40:00,60.6,55.7,30.31,SW,225,4.0,10.0,84,0.00,,,0.00,Wunderground v.1.13,2013-09-03 11:40:00,
2013-09-03 12:50:00,60.6,55.7,30.31,SW,225,4.0,10.0,84,0.00,,,0.00,Wunderground v.1.13,2013-09-03 11:50:00,
2013-09-03 13:00:00,60.8,55.3,30.30,SSW,203,3.0,8.0,82,0.00,,,0.00,Wunderground v.1.13,2013-09-03 12:00:00,
2013-09-03 13:10:00,60.5,54.6,30.30,SW,225,4.0,7.0,81,0.00,,,0.00,Wunderground v.1.13,2013-09-03 12:10:00,
2013-09-03 13:20:00,60.5,54.6,30.30,SW,225,4.0,7.0,81,0.00,,,0.00,Wunderground v.1.13,2013-09-03 12:20:00,
2013-09-03 13:30:00,60.2,54.3,30.30,SSW,203,3.0,8.0,81,0.00,,,0.00,Wunderground v.1.13,2013-09-03 12:30:00,
2013-09-03 13:40:00,60.4,54.5,30.30,SW,225,4.0,10.0,81,0.00,,,0.00,Wunderground v.1.13,2013-09-03 12:40:00,
2013-09-03 13:50:00,60.4,54.5,30.30,SW,225,4.0,10.0,81,0.00,,,0.00,Wunderground v.1.13,2013-09-03 12:50:00,
2013-09-03 14:00:00,60.8,54.9,30.29,SW,225,4.0,10.0,81,0.00,,,0.00,Wunderground v.1.13,2013-09-03 13:00:00,
2013-09-03 14:10:00,61.3,55.4,30.29,SW,225,4.0,12.0,81,0.00,,,0.00,Wunderground v.1.13,2013-09-03 13:10:00,
2013-09-03 14:20:00,61.3,55.4,30.29,SW,225,4.0,12.0,81,0.00,,,0.00,Wunderground v.1.13,2013-09-03 13:20:00,
2013-09-03 14:30:00,61.0,55.1,30.29,SW,225,5.0,12.0,81,0.00,,,0.00,Wunderground v.1.13,2013-09-03 13:30:00,
2013-09-03 14:40:00,61.2,55.0,30.29,SW,225,5.0,11.0,80,0.00,,,0.00,Wunderground v.1.13,2013-09-03 13:40:00,
2013-09-03 14:50:00,61.2,55.0,30.29,SW,225,5.0,11.0,80,0.00,,,0.00,Wunderground v.1.13,2013-09-03 13:50:00,
2013-09-03 15:00:00,61.4,54.8,30.29,SW,225,4.0,11.0,79,0.00,,,0.00,Wunderground v.1.13,2013-09-03 14:00:00,
2013-09-03 15:10:00,61.5,55.3,30.29,SW,225,5.0,11.0,80,0.00,,,0.00,Wunderground v.1.13,2013-09-03 14:10:00,
2013-09-03 15:20:00,61.5,55.3,30.29,SW,225,5.0,11.0,80,0.00,,,0.00,Wunderground v.1.13,2013-09-03 14:20:00,
2013-09-03 15:30:00,61.0,54.8,30.28,SW,225,6.0,13.0,80,0.00,,,0.00,Wunderground v.1.13,2013-09-03 14:30:00,
2013-09-03 15:40:00,60.8,54.6,30.27,SW,225,7.0,12.0,80,0.00,,,0.00,Wunderground v.1.13,2013-09-03 14:40:00,
2013-09-03 15:50:00,60.8,54.6,30.27,SW,225,7.0,12.0,80,0.00,,,0.00,Wunderground v.1.13,2013-09-03 14:50:00,
2013-09-03 16:00:00,61.0,54.8,30.27,SW,225,4.0,8.0,80,0.00,,,0.00,Wunderground v.1.13,2013-09-03 15:00:00,
2013-09-03 16:10:00,60.9,54.7,30.26,SW,225,5.0,11.0,80,0.00,,,0.00,Wunderground v.1.13,2013-09-03 15:10:00,
2013-09-03 16:20:00,60.9,54.7,30.26,SW,225,5.0,11.0,80,0.00,,,0.00,Wunderground v.1.13,2013-09-03 15:20:00,
2013-09-03 16:30:00,60.9,54.7,30.26,SW,225,5.0,11.0,80,0.00,,,0.00,Wunderground v.1.13,2013-09-03 15:30:00,
2013-09-03 16:40:00,60.9,55.0,30.26,SW,225,4.0,11.0,81,0.00,,,0.00,Wunderground v.1.13,2013-09-03 15:40:00,
2013-09-03 16:50:00,60.9,55.0,30.26,SW,225,4.0,11.0,81,0.00,,,0.00,Wunderground v.1.13,2013-09-03 15:50:00,
2013-09-03 17:00:00,61.2,55.3,30.25,SW,225,3.0,8.0,81,0.00,,,0.00,Wunderground v.1.13,2013-09-03 16:00:00,
2013-09-03 17:10:00,60.6,55.7,30.25,SW,225,4.0,9.0,84,0.00,,,0.00,Wunderground v.1.13,2013-09-03 16:10:00,
2013-09-03 17:20:00,60.6,55.7,30.25,SW,225,4.0,9.0,84,0.00,,,0.00,Wunderground v.1.13,2013-09-03 16:20:00,
2013-09-03 17:30:00,59.4,54.2,30.25,SW,225,5.0,10.0,83,0.00,,,0.00,Wunderground v.1.13,2013-09-03 16:30:00,
2013-09-03 17:40:00,59.4,54.6,30.25,SW,225,4.0,11.0,84,0.00,,,0.00,Wunderground v.1.13,2013-09-03 16:40:00,
2013-09-03 17:50:00,59.4,54.6,30.25,SW,225,4.0,11.0,84,0.00,,,0.00,Wunderground v.1.13,2013-09-03 16:50:00,
2013-09-03 18:00:00,59.2,55.0,30.24,SW,225,5.0,11.0,86,0.00,,,0.00,Wunderground v.1.13,2013-09-03 17:00:00,
2013-09-03 18:10:00,59.7,54.9,30.24,SW,225,3.0,7.0,84,0.00,,,0.00,Wunderground v.1.13,2013-09-03 17:10:00,
2013-09-03 18:20:00,59.7,54.9,30.24,SW,225,3.0,7.0,84,0.00,,,0.00,Wunderground v.1.13,2013-09-03 17:20:00,
2013-09-03 18:30:00,59.4,55.2,30.24,SW,225,5.0,11.0,86,0.00,,,0.00,Wunderground v.1.13,2013-09-03 17:30:00,
2013-09-03 18:40:00,58.8,54.0,30.24,SW,225,4.0,10.0,84,0.00,,,0.00,Wunderground v.1.13,2013-09-03 17:40:00,
2013-09-03 18:50:00,58.8,54.0,30.24,SW,225,4.0,10.0,84,0.00,,,0.00,Wunderground v.1.13,2013-09-03 17:50:00,
2013-09-03 19:00:00,58.9,54.7,30.24,SW,225,4.0,7.0,86,0.00,,,0.00,Wunderground v.1.13,2013-09-03 18:00:00,
2013-09-03 19:10:00,58.0,53.8,30.24,SW,225,4.0,10.0,86,0.00,,,0.00,Wunderground v.1.13,2013-09-03 18:10:00,
2013-09-03 19:20:00,58.0,53.8,30.24,SW,225,4.0,10.0,86,0.00,,,0.00,Wunderground v.1.13,2013-09-03 18:20:00,
2013-09-03 19:30:00,57.9,53.7,30.23,SW,225,3.0,6.0,86,0.00,,,0.00,Wunderground v.1.13,2013-09-03 18:30:00,
2013-09-03 19:40:00,57.7,54.2,30.23,SW,225,2.0,6.0,88,0.00,,,0.00,Wunderground v.1.13,2013-09-03 18:40:00,
2013-09-03 19:50:00,57.7,54.2,30.23,SW,225,2.0,6.0,88,0.00,,,0.00,Wunderground v.1.13,2013-09-03 18:50:00,
2013-09-03 20:00:00,57.4,53.9,30.23,SW,225,2.0,6.0,88,0.00,,,0.00,Wunderground v.1.13,2013-09-03 19:00:00,
2013-09-03 20:10:00,57.1,53.9,30.23,SW,225,1.0,8.0,89,0.00,,,0.00,Wunderground v.1.13,2013-09-03 19:10:00,
2013-09-03 20:20:00,57.1,53.9,30.23,SW,225,1.0,8.0,89,0.00,,,0.00,Wunderground v.1.13,2013-09-03 19:20:00,
2013-09-03 20:30:00,57.0,54.1,30.22,SW,225,0.0,1.0,90,0.00,,,0.00,Wunderground v.1.13,2013-09-03 19:30:00,
2013-09-03 20:40:00,56.4,53.8,30.22,SW,225,0.0,1.0,91,0.00,,,0.00,Wunderground v.1.13,2013-09-03 19:40:00,
2013-09-03 20:50:00,56.4,53.8,30.22,SW,225,0.0,1.0,91,0.00,,,0.00,Wunderground v.1.13,2013-09-03 19:50:00,
2013-09-03 21:00:00,54.9,52.9,30.22,SW,223,0.0,0.0,93,0.00,,,0.00,Wunderground v.1.13,2013-09-03 20:00:00,
2013-09-03 21:10:00,54.1,52.4,30.22,SW,223,0.0,0.0,94,0.00,,,0.00,Wunderground v.1.13,2013-09-03 20:10:00,
2013-09-03 21:20:00,53.7,52.0,30.22,SW,223,0.0,0.0,94,0.00,,,0.00,Wunderground v.1.13,2013-09-03 20:20:00,
2013-09-03 21:30:00,52.8,51.4,30.22,SW,223,0.0,0.0,95,0.00,,,0.00,Wunderground v.1.13,2013-09-03 20:30:00,
2013-09-03 21:40:00,52.1,50.7,30.22,SW,223,0.0,0.0,95,0.00,,,0.00,Wunderground v.1.13,2013-09-03 20:40:00,
2013-09-03 21:50:00,51.6,50.5,30.22,SW,223,0.0,0.0,96,0.00,,,0.00,Wunderground v.1.13,2013-09-03 20:50:00,
2013-09-03 22:00:00,51.2,50.4,30.21,SW,224,0.0,1.0,97,0.00,,,0.00,Wunderground v.1.13,2013-09-03 21:00:00,
2013-09-03 22:10:00,50.7,49.9,30.21,SW,224,0.0,0.0,97,0.00,,,0.00,Wunderground v.1.13,2013-09-03 21:10:00,
2013-09-03 22:20:00,50.3,49.5,30.20,SW,224,0.0,0.0,97,0.00,,,0.00,Wunderground v.1.13,2013-09-03 21:20:00,
2013-09-03 22:30:00,50.3,49.8,30.20,SW,223,0.0,0.0,98,0.00,,,0.00,Wunderground v.1.13,2013-09-03 21:30:00,
2013-09-03 22:40:00,50.3,50.0,30.20,SW,223,0.0,0.0,99,0.00,,,0.00,Wunderground v.1.13,2013-09-03 21:40:00,
2013-09-03 22:50:00,50.9,50.9,30.20,SW,224,0.0,0.0,100,0.00,,,0.00,Wunderground v.1.13,2013-09-03 21:50:00,
2013-09-03 23:00:00,51.8,51.8,30.20,SW,224,0.0,0.0,100,0.00,,,0.00,Wunderground v.1.13,2013-09-03 22:00:00,
2013-09-03 23:10:00,52.2,52.2,30.20,SW,223,0.0,0.0,100,0.00,,,0.00,Wunderground v.1.13,2013-09-03 22:10:00,
2013-09-03 23:20:00,52.4,52.4,30.20,SW,223,0.0,0.0,100,0.00,,,0.00,Wunderground v.1.13,2013-09-03 22:20:00,
2013-09-03 23:30:00,52.7,52.7,30.20,SW,223,0.0,0.0,100,0.00,,,0.00,Wunderground v.1.13,2013-09-03 22:30:00,
2013-09-03 23:40:00,53.1,53.1,30.20,SW,224,0.0,0.0,100,0.00,,,0.00,Wunderground v.1.13,2013-09-03 22:40:00,
2013-09-03 23:50:00,53.3,53.3,30.20,SW,224,0.0,0.0,100,0.00,,,0.00,Wunderground v.1.13,2013-09-03 22:50:00,